,,,PA_Meas_PMT16A,,PR_Meas_QMR101_102,,RH_Meas_QMH101,,SR_Meas_QMS101,,TA_Meas_QMH101,,GenWind,,GenWind,
date,time,status,PA,status,PR,status,RH,status,SR,status,TA,status,DirAvg,status,SpdAvg,
2013-01-31, 00:00:04,VALID,1012.8,VALID,0,VALID,104,VALID,0,VALID,24.7445,VALID,116,VALID,0.668359,
2013-01-31, 00:01:04,VALID,1012.8,VALID,0,VALID,104,VALID,0,VALID,24.7445,VALID,117,VALID,0.532031,
2013-01-31, 00:02:04,VALID,1012.82,VALID,0,VALID,104,VALID,0,VALID,24.7659,VALID,103,VALID,0.30625,
2013-01-31, 00:03:04,VALID,1012.81,VALID,0,VALID,104,VALID,0,VALID,24.725,VALID,75,VALID,0.742969,
2013-01-31, 00:04:04,VALID,1012.8,VALID,0,VALID,104,VALID,0,VALID,24.7055,VALID,85,VALID,0.74375,
2013-01-31, 00:05:04,VALID,1012.82,VALID,0,VALID,104,VALID,0,VALID,24.7464,VALID,84,VALID,0.917188,
2013-01-31, 00:06:04,VALID,1012.83,VALID,0,VALID,104,VALID,0,VALID,24.7269,VALID,109,VALID,0.603906,
2013-01-31, 00:07:04,VALID,1012.81,VALID,0,VALID,104,VALID,0,VALID,24.686,VALID,103,VALID,0.881641,
2013-01-31, 00:08:04,VALID,1012.78,VALID,0,VALID,104,VALID,0,VALID,24.7269,VALID,114,VALID,0.762109,
2013-01-31, 00:09:04,VALID,1012.8,VALID,0,VALID,104,VALID,0,VALID,24.7269,VALID,118,VALID,0.819922,
2013-01-31, 00:10:04,VALID,1012.82,VALID,0,VALID,104,VALID,0,VALID,24.7074,VALID,118,VALID,0.994922,
2013-01-31, 00:11:04,VALID,1012.83,VALID,0,VALID,104,VALID,0,VALID,24.686,VALID,100,VALID,1.09219,
2013-01-31, 00:12:04,VALID,1012.83,VALID,0,VALID,104,VALID,0,VALID,24.6879,VALID,104,VALID,1.04297,
2013-01-31, 00:13:04,VALID,1012.85,VALID,0,VALID,104,VALID,0,VALID,24.7074,VALID,94,VALID,1.10664,
2013-01-31, 00:14:04,VALID,1012.82,VALID,0,VALID,104,VALID,0,VALID,24.7074,VALID,86,VALID,0.958594,
2013-01-31, 00:15:04,VALID,1012.83,VALID,0,VALID,104,VALID,0,VALID,24.686,VALID,98,VALID,0.578906,
2013-01-31, 00:16:04,VALID,1012.83,VALID,0,VALID,104,VALID,0,VALID,24.6879,VALID,98,VALID,0.251953,
2013-01-31, 00:17:04,VALID,1012.84,VALID,0,VALID,104,VALID,0,VALID,24.6879,VALID,98,VALID,0.508203,
2013-01-31, 00:18:04,VALID,1012.85,VALID,0,VALID,104,VALID,0,VALID,24.6879,VALID,80,VALID,1.2082,
2013-01-31, 00:19:04,VALID,1012.83,VALID,0,VALID,104,VALID,0,VALID,24.6684,VALID,84,VALID,1.30352,
2013-01-31, 00:20:04,VALID,1012.8,VALID,0,VALID,104,VALID,0,VALID,24.6684,VALID,111,VALID,0.830859,
2013-01-31, 00:21:04,VALID,1012.79,VALID,0,VALID,104,VALID,0,VALID,24.6684,VALID,97,VALID,0.710547,
2013-01-31, 00:22:04,VALID,1012.78,VALID,0,VALID,104,VALID,0,VALID,24.6471,VALID,88,VALID,0.695703,
2013-01-31, 00:23:04,VALID,1012.75,VALID,0,VALID,104,VALID,0,VALID,24.6489,VALID,86,VALID,0.327344,
2013-01-31, 00:24:04,VALID,1012.71,VALID,0,VALID,104,VALID,0,VALID,24.6684,VALID,87,VALID,0.136328,
2013-01-31, 00:25:04,VALID,1012.74,VALID,0,VALID,104,VALID,0,VALID,24.6684,VALID,82,VALID,0.601953,
2013-01-31, 00:26:04,VALID,1012.73,VALID,0,VALID,104,VALID,0,VALID,24.6684,VALID,67,VALID,0.788672,
2013-01-31, 00:27:04,VALID,1012.7,VALID,0,VALID,104,VALID,0,VALID,24.6684,VALID,52,VALID,0.530859,
2013-01-31, 00:28:04,VALID,1012.7,VALID,0,VALID,104,VALID,0,VALID,24.6294,VALID,66,VALID,0.844922,
2013-01-31, 00:29:04,VALID,1012.68,VALID,0,VALID,104,VALID,0,VALID,24.6294,VALID,74,VALID,1.10391,
2013-01-31, 00:30:04,VALID,1012.67,VALID,0,VALID,104,VALID,0,VALID,24.6489,VALID,73,VALID,1.27734,
2013-01-31, 00:31:04,VALID,1012.69,VALID,0,VALID,104,VALID,0,VALID,24.6489,VALID,74,VALID,0.972266,
2013-01-31, 00:32:04,VALID,1012.69,VALID,0,VALID,104,VALID,0,VALID,24.6081,VALID,63,VALID,0.764844,
2013-01-31, 00:33:04,VALID,1012.67,VALID,0,VALID,104,VALID,0,VALID,24.6294,VALID,78,VALID,0.544141,
2013-01-31, 00:34:04,VALID,1012.67,VALID,0,VALID,104,VALID,0,VALID,24.6294,VALID,78,VALID,0.626953,
2013-01-31, 00:35:04,VALID,1012.66,VALID,0,VALID,104,VALID,0,VALID,24.6099,VALID,80,VALID,1.05977,
2013-01-31, 00:36:04,VALID,1012.66,VALID,0,VALID,104,VALID,0,VALID,24.6099,VALID,81,VALID,0.641016,
2013-01-31, 00:37:04,VALID,1012.63,VALID,0,VALID,104,VALID,0,VALID,24.5691,VALID,66,VALID,0.942187,
2013-01-31, 00:38:04,VALID,1012.65,VALID,0,VALID,104,VALID,0,VALID,24.571,VALID,66,VALID,0.425,
2013-01-31, 00:39:04,VALID,1012.63,VALID,0,VALID,104,VALID,0,VALID,24.571,VALID,71,VALID,0.6625,
2013-01-31, 00:40:04,VALID,1012.67,VALID,0,VALID,104,VALID,0,VALID,24.5515,VALID,70,VALID,0.648828,
2013-01-31, 00:41:04,VALID,1012.67,VALID,0,VALID,104,VALID,0,VALID,24.571,VALID,64,VALID,0.408984,
2013-01-31, 00:42:04,VALID,1012.68,VALID,0,VALID,104,VALID,0,VALID,24.5515,VALID,64,VALID,0.321875,
2013-01-31, 00:43:04,VALID,1012.74,VALID,0,VALID,104,VALID,0,VALID,24.5515,VALID,64,VALID,0.580078,
2013-01-31, 00:44:04,VALID,1012.74,VALID,0,VALID,104,VALID,0,VALID,24.532,VALID,68,VALID,0.525781,
2013-01-31, 00:45:04,VALID,1012.74,VALID,0,VALID,104,VALID,0,VALID,24.532,VALID,69,VALID,0.48125,
2013-01-31, 00:46:04,VALID,1012.76,VALID,0,VALID,104,VALID,0,VALID,24.532,VALID,68,VALID,0.568359,
2013-01-31, 00:47:04,VALID,1012.77,VALID,0,VALID,104,VALID,0,VALID,24.532,VALID,85,VALID,0.7375,
2013-01-31, 00:48:04,VALID,1012.8,VALID,0,VALID,104,VALID,0,VALID,24.532,VALID,105,VALID,0.6625,
2013-01-31, 00:49:04,VALID,1012.76,VALID,0,VALID,104,VALID,0,VALID,24.5515,VALID,156,VALID,0.786719,
2013-01-31, 00:50:04,VALID,1012.74,VALID,0,VALID,104,VALID,0,VALID,24.5515,VALID,155,VALID,0.887109,
2013-01-31, 00:51:04,VALID,1012.71,VALID,0,VALID,104,VALID,0,VALID,24.532,VALID,153,VALID,0.79375,
2013-01-31, 00:52:04,VALID,1012.68,VALID,0,VALID,104,VALID,0,VALID,24.5125,VALID,153,VALID,0.446875,
2013-01-31, 00:53:04,VALID,1012.65,VALID,0,VALID,104,VALID,0,VALID,24.5125,VALID,153,VALID,0.461719,
2013-01-31, 00:54:04,VALID,1012.6,VALID,0,VALID,104,VALID,0,VALID,24.493,VALID,152,VALID,0.427344,
2013-01-31, 00:55:04,VALID,1012.6,VALID,0,VALID,104,VALID,0,VALID,24.493,VALID,152,VALID,0.375391,
2013-01-31, 00:56:04,VALID,1012.61,VALID,0,VALID,104,VALID,0,VALID,24.493,VALID,152,VALID,0.216797,
2013-01-31, 00:57:04,VALID,1012.61,VALID,0,VALID,104,VALID,0,VALID,24.4735,VALID,152,VALID,0.425,
2013-01-31, 00:58:04,VALID,1012.62,VALID,0,VALID,104,VALID,0,VALID,24.493,VALID,152,VALID,0.265234,
2013-01-31, 00:59:04,VALID,1012.61,VALID,0,VALID,104,VALID,0,VALID,24.493,VALID,152,VALID,0.196094,
2013-01-31, 01:00:04,VALID,1012.62,VALID,0,VALID,104,VALID,0,VALID,24.493,VALID,152,VALID,0.358984,
2013-01-31, 01:01:04,VALID,1012.62,VALID,0,VALID,104,VALID,0,VALID,24.493,VALID,153,VALID,0.333984,
2013-01-31, 01:02:04,VALID,1012.61,VALID,0,VALID,104,VALID,0,VALID,24.493,VALID,152,VALID,0.64375,
2013-01-31, 01:03:04,VALID,1012.62,VALID,0,VALID,104,VALID,0,VALID,24.4735,VALID,139,VALID,0.454297,
2013-01-31, 01:04:04,VALID,1012.62,VALID,0,VALID,104,VALID,0.112112,VALID,24.4522,VALID,114,VALID,0.810938,
2013-01-31, 01:05:04,VALID,1012.61,VALID,0,VALID,104,VALID,0,VALID,24.4735,VALID,108,VALID,0.644531,
2013-01-31, 01:06:04,VALID,1012.62,VALID,0,VALID,104,VALID,0,VALID,24.4735,VALID,108,VALID,0.639453,
2013-01-31, 01:07:04,VALID,1012.61,VALID,0,VALID,104,VALID,0,VALID,24.4735,VALID,102,VALID,0.539844,
2013-01-31, 01:08:04,VALID,1012.59,VALID,0,VALID,104,VALID,0,VALID,24.454,VALID,82,VALID,0.802344,
2013-01-31, 01:09:04,VALID,1012.6,VALID,0,VALID,104,VALID,0,VALID,24.4735,VALID,100,VALID,0.882813,
2013-01-31, 01:10:04,VALID,1012.56,VALID,0,VALID,104,VALID,0,VALID,24.4327,VALID,99,VALID,1.56562,
2013-01-31, 01:11:04,VALID,1012.55,VALID,0,VALID,104,VALID,0,VALID,24.4735,VALID,103,VALID,1.00508,
2013-01-31, 01:12:04,VALID,1012.52,VALID,0,VALID,104,VALID,0,VALID,24.4735,VALID,102,VALID,1.3543,
2013-01-31, 01:13:04,VALID,1012.5,VALID,0,VALID,104,VALID,0,VALID,24.454,VALID,89,VALID,1.36875,
2013-01-31, 01:14:04,VALID,1012.46,VALID,0,VALID,104,VALID,0,VALID,24.454,VALID,96,VALID,1.14688,
2013-01-31, 01:15:04,VALID,1012.47,VALID,0,VALID,104,VALID,0,VALID,24.4345,VALID,94,VALID,1.23164,
2013-01-31, 01:16:04,VALID,1012.49,VALID,0,VALID,104,VALID,0,VALID,24.415,VALID,90,VALID,1.77578,
2013-01-31, 01:17:04,VALID,1012.45,VALID,0,VALID,104,VALID,0,VALID,24.415,VALID,83,VALID,1.10469,
2013-01-31, 01:18:04,VALID,1012.45,VALID,0,VALID,104,VALID,0,VALID,24.415,VALID,88,VALID,0.782422,
2013-01-31, 01:19:04,VALID,1012.44,VALID,0,VALID,104,VALID,0,VALID,24.415,VALID,88,VALID,1,
2013-01-31, 01:20:04,VALID,1012.44,VALID,0,VALID,104,VALID,0,VALID,24.415,VALID,84,VALID,0.6375,
2013-01-31, 01:21:04,VALID,1012.39,VALID,0,VALID,104,VALID,0,VALID,24.415,VALID,81,VALID,0.314453,
2013-01-31, 01:22:04,VALID,1012.39,VALID,0,VALID,104,VALID,0,VALID,24.415,VALID,81,VALID,0.354297,
2013-01-31, 01:23:04,VALID,1012.36,VALID,0,VALID,104,VALID,0,VALID,24.415,VALID,81,VALID,0.0492188,
2013-01-31, 01:24:04,VALID,1012.35,VALID,0,VALID,104,VALID,0,VALID,24.415,VALID,90,VALID,0.477344,
2013-01-31, 01:25:04,VALID,1012.32,VALID,0,VALID,104,VALID,0,VALID,24.415,VALID,90,VALID,0,
2013-01-31, 01:26:04,VALID,1012.3,VALID,0,VALID,104,VALID,0,VALID,24.3956,VALID,106,VALID,0.615625,
2013-01-31, 01:27:04,VALID,1012.28,VALID,0,VALID,104,VALID,0,VALID,24.3761,VALID,96,VALID,0.382422,
2013-01-31, 01:28:04,VALID,1012.27,VALID,0,VALID,104,VALID,0,VALID,24.3761,VALID,97,VALID,0.238672,
2013-01-31, 01:29:04,VALID,1012.25,VALID,0,VALID,104,VALID,0,VALID,24.3547,VALID,97,VALID,0.161719,
2013-01-31, 01:30:04,VALID,1012.24,VALID,0,VALID,104,VALID,0,VALID,24.3761,VALID,97,VALID,0.435156,
2013-01-31, 01:31:04,VALID,1012.25,VALID,0,VALID,104,VALID,0,VALID,24.3761,VALID,101,VALID,0.588672,
2013-01-31, 01:32:04,VALID,1012.23,VALID,0,VALID,104,VALID,0,VALID,24.3371,VALID,99,VALID,0.780859,
2013-01-31, 01:33:04,VALID,1012.22,VALID,0,VALID,104,VALID,0,VALID,24.3371,VALID,97,VALID,0.768359,
2013-01-31, 01:34:04,VALID,1012.21,VALID,0,VALID,104,VALID,0,VALID,24.3158,VALID,94,VALID,0.587109,
2013-01-31, 01:35:04,VALID,1012.2,VALID,0,VALID,104,VALID,0,VALID,24.3176,VALID,110,VALID,1.08398,
2013-01-31, 01:36:04,VALID,1012.18,VALID,0,VALID,104,VALID,0.112112,VALID,24.2981,VALID,91,VALID,0.329688,
2013-01-31, 01:37:04,VALID,1012.18,VALID,0,VALID,104,VALID,0,VALID,24.2786,VALID,91,VALID,0.411328,
2013-01-31, 01:38:04,VALID,1012.15,VALID,0,VALID,104,VALID,0,VALID,24.2786,VALID,91,VALID,0,
2013-01-31, 01:39:04,VALID,1012.15,VALID,0,VALID,104,VALID,0,VALID,24.2786,VALID,91,VALID,0.394922,
2013-01-31, 01:40:04,VALID,1012.11,VALID,0,VALID,104,VALID,0,VALID,24.2591,VALID,91,VALID,0.287109,
2013-01-31, 01:41:04,VALID,1012.11,VALID,0,VALID,104,VALID,0,VALID,24.2396,VALID,91,VALID,0.314453,
2013-01-31, 01:42:04,VALID,1012.1,VALID,0,VALID,104,VALID,0,VALID,24.2202,VALID,91,VALID,0.348047,
2013-01-31, 01:43:04,VALID,1012.09,VALID,0,VALID,104,VALID,0,VALID,24.2007,VALID,91,VALID,0.747656,
2013-01-31, 01:44:04,VALID,1012.09,VALID,0,VALID,104,VALID,0,VALID,24.2202,VALID,90,VALID,0.883203,
2013-01-31, 01:45:04,VALID,1012.07,VALID,0,VALID,104,VALID,0,VALID,24.2007,VALID,76,VALID,0.594141,
2013-01-31, 01:46:04,VALID,1012.05,VALID,0,VALID,104,VALID,0,VALID,24.2007,VALID,75,VALID,0.621484,
2013-01-31, 01:47:04,VALID,1012.02,VALID,0,VALID,104,VALID,0,VALID,24.2007,VALID,71,VALID,0.654688,
2013-01-31, 01:48:04,VALID,1012,VALID,0,VALID,104,VALID,0,VALID,24.1812,VALID,72,VALID,0.685156,
2013-01-31, 01:49:04,VALID,1012.01,VALID,0,VALID,104,VALID,0,VALID,24.2007,VALID,76,VALID,0.760547,
2013-01-31, 01:50:04,VALID,1011.98,VALID,0,VALID,104,VALID,0,VALID,24.1812,VALID,76,VALID,0.559375,
2013-01-31, 01:51:04,VALID,1011.97,VALID,0,VALID,104,VALID,0,VALID,24.1812,VALID,76,VALID,0.512891,
2013-01-31, 01:52:04,VALID,1011.94,VALID,0,VALID,104,VALID,0,VALID,24.1812,VALID,70,VALID,0.709766,
2013-01-31, 01:53:04,VALID,1011.92,VALID,0,VALID,104,VALID,0,VALID,24.1617,VALID,57,VALID,0.901172,
2013-01-31, 01:54:04,VALID,1011.91,VALID,0,VALID,104,VALID,0,VALID,24.1617,VALID,55,VALID,0.817187,
2013-01-31, 01:55:04,VALID,1011.93,VALID,0,VALID,104,VALID,0.112112,VALID,24.1404,VALID,55,VALID,0.550781,
2013-01-31, 01:56:04,VALID,1011.93,VALID,0,VALID,104,VALID,0,VALID,24.1422,VALID,56,VALID,0.796094,
2013-01-31, 01:57:04,VALID,1011.92,VALID,0,VALID,104,VALID,0,VALID,24.1422,VALID,54,VALID,0.405078,
2013-01-31, 01:58:04,VALID,1011.96,VALID,0,VALID,104,VALID,0,VALID,24.144,VALID,54,VALID,0.5875,
2013-01-31, 01:59:04,VALID,1011.99,VALID,0,VALID,104,VALID,0,VALID,24.1227,VALID,54,VALID,0.140234,
2013-01-31, 02:00:04,VALID,1012.01,VALID,0,VALID,104,VALID,0.112112,VALID,24.1032,VALID,54,VALID,0.555469,
2013-01-31, 02:01:04,VALID,1012.01,VALID,0,VALID,104,VALID,0,VALID,24.1032,VALID,55,VALID,0.748047,
2013-01-31, 02:02:04,VALID,1012.03,VALID,0,VALID,104,VALID,0,VALID,24.1032,VALID,67,VALID,0.687109,
2013-01-31, 02:03:04,VALID,1012.07,VALID,0,VALID,104,VALID,0,VALID,24.1032,VALID,65,VALID,0.495703,
2013-01-31, 02:04:04,VALID,1012.07,VALID,0,VALID,104,VALID,0,VALID,24.0837,VALID,64,VALID,0.366406,
2013-01-31, 02:05:04,VALID,1012.09,VALID,0,VALID,104,VALID,0,VALID,24.0837,VALID,64,VALID,0.365625,
2013-01-31, 02:06:04,VALID,1012.11,VALID,0,VALID,104,VALID,0,VALID,24.0643,VALID,64,VALID,0.143359,
2013-01-31, 02:07:04,VALID,1012.11,VALID,0,VALID,104,VALID,0,VALID,24.0448,VALID,64,VALID,0.246094,
2013-01-31, 02:08:04,VALID,1012.11,VALID,0,VALID,104,VALID,0,VALID,24.0253,VALID,64,VALID,0.536719,
2013-01-31, 02:09:04,VALID,1012.12,VALID,0,VALID,104,VALID,0,VALID,23.9845,VALID,60,VALID,0.458203,
2013-01-31, 02:10:04,VALID,1012.14,VALID,0,VALID,104,VALID,0,VALID,24.0058,VALID,60,VALID,0.351563,
2013-01-31, 02:11:04,VALID,1012.15,VALID,0,VALID,104,VALID,0,VALID,24.0253,VALID,67,VALID,0.85625,
2013-01-31, 02:12:04,VALID,1012.13,VALID,0,VALID,104,VALID,0,VALID,24.0253,VALID,71,VALID,0.659766,
2013-01-31, 02:13:04,VALID,1012.12,VALID,0,VALID,104,VALID,0,VALID,24.0253,VALID,81,VALID,0.802344,
2013-01-31, 02:14:04,VALID,1012.13,VALID,0,VALID,104,VALID,0,VALID,24.0448,VALID,81,VALID,0.499219,
2013-01-31, 02:15:04,VALID,1012.12,VALID,0,VALID,104,VALID,0.112112,VALID,24.0448,VALID,80,VALID,0.691016,
2013-01-31, 02:16:04,VALID,1012.14,VALID,0,VALID,104,VALID,0,VALID,24.0235,VALID,81,VALID,0.421875,
2013-01-31, 02:17:04,VALID,1012.16,VALID,0,VALID,104,VALID,0,VALID,24.0643,VALID,80,VALID,0.163672,
2013-01-31, 02:18:04,VALID,1012.18,VALID,0,VALID,104,VALID,0,VALID,24.0837,VALID,81,VALID,0.616016,
2013-01-31, 02:19:04,VALID,1012.16,VALID,0,VALID,104,VALID,0,VALID,24.0837,VALID,78,VALID,0.648828,
2013-01-31, 02:20:04,VALID,1012.17,VALID,0,VALID,104,VALID,0,VALID,24.1032,VALID,74,VALID,0.330078,
2013-01-31, 02:21:04,VALID,1012.16,VALID,0,VALID,104,VALID,0,VALID,24.1032,VALID,74,VALID,0.425781,
2013-01-31, 02:22:04,VALID,1012.16,VALID,0,VALID,104,VALID,0,VALID,24.1227,VALID,57,VALID,0.396094,
2013-01-31, 02:23:04,VALID,1012.13,VALID,0,VALID,104,VALID,0,VALID,24.1014,VALID,62,VALID,0.472656,
2013-01-31, 02:24:04,VALID,1012.12,VALID,0,VALID,104,VALID,0,VALID,24.1227,VALID,62,VALID,0.25,
2013-01-31, 02:25:04,VALID,1012.1,VALID,0,VALID,104,VALID,0,VALID,24.1227,VALID,62,VALID,0.339844,
2013-01-31, 02:26:04,VALID,1012.09,VALID,0,VALID,104,VALID,0,VALID,24.1422,VALID,62,VALID,0.471875,
2013-01-31, 02:27:04,VALID,1012.06,VALID,0,VALID,104,VALID,0,VALID,24.1422,VALID,62,VALID,0.366406,
2013-01-31, 02:28:04,VALID,1012.07,VALID,0,VALID,104,VALID,0,VALID,24.1635,VALID,62,VALID,0.145313,
2013-01-31, 02:29:04,VALID,1012.1,VALID,0,VALID,104,VALID,0,VALID,24.1404,VALID,62,VALID,0.297656,
2013-01-31, 02:30:04,VALID,1012.07,VALID,0,VALID,104,VALID,0,VALID,24.1422,VALID,62,VALID,0.321875,
2013-01-31, 02:31:04,VALID,1012.09,VALID,0,VALID,104,VALID,0,VALID,24.1635,VALID,62,VALID,0.0929687,
2013-01-31, 02:32:04,VALID,1012.08,VALID,0,VALID,104,VALID,0,VALID,24.1227,VALID,62,VALID,0.210547,
2013-01-31, 02:33:04,VALID,1012.08,VALID,0,VALID,104,VALID,0,VALID,24.1227,VALID,62,VALID,0.00351562,
2013-01-31, 02:34:04,VALID,1012.09,VALID,0,VALID,104,VALID,0,VALID,24.1227,VALID,62,VALID,0,
2013-01-31, 02:35:04,VALID,1012.07,VALID,0,VALID,104,VALID,0,VALID,24.1227,VALID,62,VALID,0,
2013-01-31, 02:36:04,VALID,1012.04,VALID,0,VALID,104,VALID,0,VALID,24.1422,VALID,62,VALID,0,
2013-01-31, 02:37:04,VALID,1012.04,VALID,0,VALID,104,VALID,0,VALID,24.1422,VALID,62,VALID,0,
2013-01-31, 02:38:04,VALID,1012.02,VALID,0,VALID,104,VALID,0,VALID,24.1422,VALID,62,VALID,0.248437,
2013-01-31, 02:39:04,VALID,1012,VALID,0,VALID,104,VALID,0,VALID,24.1422,VALID,89,VALID,0.548828,
2013-01-31, 02:40:04,VALID,1012,VALID,0,VALID,104,VALID,0,VALID,24.1617,VALID,102,VALID,0.335938,
2013-01-31, 02:41:04,VALID,1011.97,VALID,0,VALID,104,VALID,0,VALID,24.1617,VALID,102,VALID,0.19375,
2013-01-31, 02:42:04,VALID,1011.97,VALID,0,VALID,104,VALID,0,VALID,24.1812,VALID,102,VALID,0.176953,
2013-01-31, 02:43:04,VALID,1011.97,VALID,0,VALID,104,VALID,0,VALID,24.2007,VALID,102,VALID,0.718359,
2013-01-31, 02:44:04,VALID,1011.99,VALID,0,VALID,104,VALID,0,VALID,24.2007,VALID,123,VALID,0.460938,
2013-01-31, 02:45:04,VALID,1011.96,VALID,0,VALID,104,VALID,0,VALID,24.2007,VALID,123,VALID,0.375781,
2013-01-31, 02:46:04,VALID,1011.96,VALID,0,VALID,104,VALID,0,VALID,24.2007,VALID,123,VALID,0.351172,
2013-01-31, 02:47:04,VALID,1011.93,VALID,0,VALID,104,VALID,0,VALID,24.1812,VALID,139,VALID,0.694531,
2013-01-31, 02:48:04,VALID,1011.92,VALID,0,VALID,104,VALID,0,VALID,24.1617,VALID,140,VALID,0.619922,
2013-01-31, 02:49:04,VALID,1011.9,VALID,0,VALID,104,VALID,0,VALID,24.1422,VALID,140,VALID,0.520703,
2013-01-31, 02:50:04,VALID,1011.87,VALID,0,VALID,104,VALID,0,VALID,24.1617,VALID,140,VALID,0.566016,
2013-01-31, 02:51:04,VALID,1011.85,VALID,0,VALID,104,VALID,0,VALID,24.1422,VALID,140,VALID,0.524609,
2013-01-31, 02:52:04,VALID,1011.8,VALID,0,VALID,104,VALID,0,VALID,24.1227,VALID,140,VALID,0.684766,
2013-01-31, 02:53:04,VALID,1011.81,VALID,0,VALID,104,VALID,0,VALID,24.1422,VALID,140,VALID,0.635547,
2013-01-31, 02:54:04,VALID,1011.77,VALID,0,VALID,104,VALID,0,VALID,24.1227,VALID,140,VALID,0.362891,
2013-01-31, 02:55:04,VALID,1011.73,VALID,0,VALID,104,VALID,0,VALID,24.1227,VALID,140,VALID,0.419531,
2013-01-31, 02:56:04,VALID,1011.7,VALID,0,VALID,104,VALID,0,VALID,24.1227,VALID,140,VALID,0.287109,
2013-01-31, 02:57:04,VALID,1011.7,VALID,0,VALID,104,VALID,0,VALID,24.1227,VALID,140,VALID,0.266797,
2013-01-31, 02:58:04,VALID,1011.67,VALID,0,VALID,104,VALID,0,VALID,24.1032,VALID,140,VALID,0.389453,
2013-01-31, 02:59:04,VALID,1011.65,VALID,0,VALID,104,VALID,0,VALID,24.0837,VALID,140,VALID,0.219531,
2013-01-31, 03:00:04,VALID,1011.65,VALID,0,VALID,104,VALID,0,VALID,24.0856,VALID,140,VALID,0.214062,
2013-01-31, 03:01:04,VALID,1011.63,VALID,0,VALID,104,VALID,0,VALID,24.0624,VALID,140,VALID,0.426172,
2013-01-31, 03:02:04,VALID,1011.61,VALID,0,VALID,104,VALID,0,VALID,24.0643,VALID,90,VALID,0.8625,
2013-01-31, 03:03:04,VALID,1011.61,VALID,0,VALID,104,VALID,0,VALID,24.0643,VALID,88,VALID,0.6875,
2013-01-31, 03:04:04,VALID,1011.59,VALID,0,VALID,104,VALID,0,VALID,24.0643,VALID,88,VALID,0.469141,
2013-01-31, 03:05:04,VALID,1011.58,VALID,0,VALID,104,VALID,0,VALID,24.0253,VALID,48,VALID,1.03359,
2013-01-31, 03:06:04,VALID,1011.58,VALID,0,VALID,104,VALID,0,VALID,24.0253,VALID,49,VALID,0.911328,
2013-01-31, 03:07:04,VALID,1011.56,VALID,0,VALID,104,VALID,0,VALID,24.0058,VALID,60,VALID,0.887109,
2013-01-31, 03:08:04,VALID,1011.56,VALID,0,VALID,104,VALID,0,VALID,23.9863,VALID,63,VALID,0.570313,
2013-01-31, 03:09:04,VALID,1011.54,VALID,0,VALID,104,VALID,0,VALID,23.9863,VALID,63,VALID,0.716797,
2013-01-31, 03:10:04,VALID,1011.56,VALID,0,VALID,104,VALID,0,VALID,23.9668,VALID,63,VALID,0.251563,
2013-01-31, 03:11:04,VALID,1011.58,VALID,0,VALID,104,VALID,0,VALID,23.9473,VALID,64,VALID,0.111719,
2013-01-31, 03:12:04,VALID,1011.56,VALID,0,VALID,104,VALID,0,VALID,23.9278,VALID,63,VALID,0,
2013-01-31, 03:13:04,VALID,1011.57,VALID,0,VALID,104,VALID,0,VALID,23.9065,VALID,63,VALID,0,
2013-01-31, 03:14:04,VALID,1011.53,VALID,0,VALID,104,VALID,0,VALID,23.9084,VALID,63,VALID,0.142969,
2013-01-31, 03:15:04,VALID,1011.53,VALID,0,VALID,104,VALID,0,VALID,23.9084,VALID,63,VALID,0.212109,
2013-01-31, 03:16:04,VALID,1011.5,VALID,0,VALID,104,VALID,0,VALID,23.9084,VALID,63,VALID,0.0386719,
2013-01-31, 03:17:04,VALID,1011.51,VALID,0,VALID,104,VALID,0,VALID,23.9084,VALID,63,VALID,0.00351562,
2013-01-31, 03:18:04,VALID,1011.46,VALID,0,VALID,104,VALID,0,VALID,23.9084,VALID,63,VALID,0.00429688,
2013-01-31, 03:19:04,VALID,1011.44,VALID,0,VALID,104,VALID,0,VALID,23.9084,VALID,63,VALID,0.114063,
2013-01-31, 03:20:04,VALID,1011.43,VALID,0,VALID,104,VALID,0,VALID,23.8889,VALID,63,VALID,0.138672,
2013-01-31, 03:21:04,VALID,1011.4,VALID,0,VALID,104,VALID,0,VALID,23.8889,VALID,63,VALID,0.229687,
2013-01-31, 03:22:04,VALID,1011.38,VALID,0,VALID,104,VALID,0,VALID,23.8694,VALID,63,VALID,0.000390625,
2013-01-31, 03:23:04,VALID,1011.37,VALID,0,VALID,104,VALID,0,VALID,23.8517,VALID,63,VALID,0.460938,
2013-01-31, 03:24:04,VALID,1011.36,VALID,0,VALID,104,VALID,0,VALID,23.8322,VALID,63,VALID,0.2375,
2013-01-31, 03:25:04,VALID,1011.36,VALID,0,VALID,104,VALID,0,VALID,23.8109,VALID,63,VALID,0.171094,
2013-01-31, 03:26:04,VALID,1011.36,VALID,0,VALID,104,VALID,0,VALID,23.7914,VALID,63,VALID,0.0257812,
2013-01-31, 03:27:04,VALID,1011.4,VALID,0,VALID,104,VALID,0,VALID,23.7932,VALID,63,VALID,0.367188,
2013-01-31, 03:28:04,VALID,1011.41,VALID,0,VALID,104,VALID,0,VALID,23.772,VALID,63,VALID,0.425391,
2013-01-31, 03:29:04,VALID,1011.46,VALID,0,VALID,104,VALID,0,VALID,23.7914,VALID,63,VALID,0.291406,
2013-01-31, 03:30:04,VALID,1011.45,VALID,0,VALID,104,VALID,0,VALID,23.772,VALID,63,VALID,0.0175781,
2013-01-31, 03:31:04,VALID,1011.48,VALID,0,VALID,104,VALID,0,VALID,23.7738,VALID,63,VALID,0,
2013-01-31, 03:32:04,VALID,1011.47,VALID,0,VALID,104,VALID,0,VALID,23.7312,VALID,63,VALID,0,
2013-01-31, 03:33:04,VALID,1011.49,VALID,0,VALID,104,VALID,0.112112,VALID,23.7312,VALID,63,VALID,0,
2013-01-31, 03:34:04,VALID,1011.49,VALID,0,VALID,104,VALID,0.112112,VALID,23.7117,VALID,80,VALID,0.598828,
2013-01-31, 03:35:04,VALID,1011.51,VALID,0,VALID,104,VALID,0,VALID,23.6922,VALID,86,VALID,0.458203,
2013-01-31, 03:36:04,VALID,1011.53,VALID,0,VALID,104,VALID,0.112112,VALID,23.7117,VALID,86,VALID,0.421094,
2013-01-31, 03:37:04,VALID,1011.54,VALID,0,VALID,104,VALID,0.112112,VALID,23.7117,VALID,86,VALID,0.486719,
2013-01-31, 03:38:04,VALID,1011.58,VALID,0,VALID,104,VALID,0.112112,VALID,23.6922,VALID,85,VALID,0.467969,
2013-01-31, 03:39:04,VALID,1011.57,VALID,0,VALID,104,VALID,0.112112,VALID,23.6922,VALID,74,VALID,0.425391,
2013-01-31, 03:40:04,VALID,1011.58,VALID,0,VALID,104,VALID,0.112112,VALID,23.6922,VALID,74,VALID,0.435547,
2013-01-31, 03:41:04,VALID,1011.6,VALID,0,VALID,104,VALID,0.112112,VALID,23.6727,VALID,64,VALID,0.84375,
2013-01-31, 03:42:04,VALID,1011.59,VALID,0,VALID,104,VALID,0.112112,VALID,23.6709,VALID,55,VALID,0.805859,
2013-01-31, 03:43:04,VALID,1011.6,VALID,0,VALID,104,VALID,0,VALID,23.6922,VALID,61,VALID,0.675391,
2013-01-31, 03:44:04,VALID,1011.61,VALID,0,VALID,104,VALID,0.112112,VALID,23.6922,VALID,62,VALID,0.301953,
2013-01-31, 03:45:04,VALID,1011.6,VALID,0,VALID,104,VALID,0.112112,VALID,23.6727,VALID,61,VALID,0.253516,
2013-01-31, 03:46:04,VALID,1011.62,VALID,0,VALID,104,VALID,0.112112,VALID,23.6727,VALID,60,VALID,0.274219,
2013-01-31, 03:47:04,VALID,1011.65,VALID,0,VALID,104,VALID,0,VALID,23.6745,VALID,63,VALID,0.166406,
2013-01-31, 03:48:04,VALID,1011.69,VALID,0,VALID,104,VALID,0,VALID,23.6745,VALID,61,VALID,0.117188,
2013-01-31, 03:49:04,VALID,1011.71,VALID,0,VALID,104,VALID,0,VALID,23.6745,VALID,61,VALID,0.214062,
2013-01-31, 03:50:04,VALID,1011.69,VALID,0,VALID,104,VALID,0,VALID,23.655,VALID,62,VALID,0.265625,
2013-01-31, 03:51:04,VALID,1011.72,VALID,0,VALID,104,VALID,0,VALID,23.6356,VALID,62,VALID,0,
2013-01-31, 03:52:04,VALID,1011.76,VALID,0,VALID,104,VALID,0,VALID,23.655,VALID,62,VALID,0.200391,
2013-01-31, 03:53:04,VALID,1011.73,VALID,0,VALID,104,VALID,0,VALID,23.655,VALID,62,VALID,0.0308594,
2013-01-31, 03:54:04,VALID,1011.76,VALID,0,VALID,104,VALID,0,VALID,23.655,VALID,62,VALID,0.127344,